GW3011 Weather Reports


time (UTC)temp
C
wind
direction
speed
KPH
gust
KPH
rain 1hr
cm
rain 24hr
cm
rain mn
cm
humidity
%
barometer
mb
20260505171517 24 119 1.6 3.2 0.00 0.00 0.00 49 1009.1
20260505171014 24 328 3.2 4.8 0.00 0.00 0.00 49 1009.2
20260505170511 25 15 1.6 3.2 0.00 0.00 0.00 49 1009.2
20260505170007 25 36 3.2 6.4 0.00 0.00 0.00 47 1009.3
20260505165502 25 301 1.6 3.2 0.00 0.00 0.00 49 1009.3
20260505164958 25 41 8.0 9.7 0.00 0.00 0.00 48 1009.5
20260505164454 26 335 6.4 9.7 0.00 0.00 0.00 46 1009.7
20260505163952 25 312 1.6 1.6 0.00 0.00 0.00 46 1009.4
20260505163451 25 352 6.4 6.4 0.00 0.00 0.00 47 1009.6
20260505162950 26 312 0.0 0.0 0.00 0.00 0.00 44 1009.6
20260505162445 25 305 0.0 0.0 0.00 0.00 0.00 48 1009.7
20260505161942 25 312 3.2 4.8 0.00 0.00 0.00 48 1009.8
20260505161439 24 306 3.2 4.8 0.00 0.00 0.00 49 1009.9
20260505160936 24 293 4.8 4.8 0.00 0.00 0.00 49 1010.0
20260505160434 25 356 6.4 9.7 0.00 0.00 0.00 48 1010.0
20260505152904 25 246 3.2 4.8 0.00 0.00 0.00 47 1010.1
20260505152401 24 306 0.0 0.0 0.00 0.00 0.00 48 1010.2
20260505151855 23 291 6.4 9.7 0.00 0.00 0.00 51 1010.2
20260505151352 23 236 6.4 12.9 0.00 0.00 0.00 50 1010.4
20260505150849 23 278 1.6 3.2 0.00 0.00 0.00 51 1010.7
20260505150346 23 109 4.8 6.4 0.00 0.00 0.00 50 1010.5
20260505140311 21 69 6.4 9.7 0.00 0.00 0.00 56 1010.6
20260505130234 19 125 8.0 12.9 0.00 0.00 0.00 63 1010.5
20260505124725 20 168 4.8 9.7 0.00 0.00 0.00 59 1010.4
20260505124222 20 97 6.4 9.7 0.00 0.00 0.00 59 1010.6
20260505123717 21 240 4.8 6.4 0.00 0.00 0.00 57 1010.5
20260505123214 20 329 6.4 6.4 0.00 0.00 0.00 58 1010.7
20260505122711 20 161 8.0 9.7 0.00 0.00 0.00 59 1010.4
20260505122208 20 240 3.2 4.8 0.00 0.00 0.00 59 1010.3
20260505121704 20 278 3.2 4.8 0.00 0.00 0.00 60 1010.3
20260505121201 20 284 0.0 1.6 0.00 0.00 0.00 60 1010.3
20260505120657 20 282 4.8 6.4 0.00 0.00 0.00 61 1010.2
20260505120154 19 205 3.2 4.8 0.00 0.00 0.00 63 1010.2
20260505115647 20 345 3.2 3.2 0.00 0.00 0.00 61 1010.4
20260505115145 19 24 1.6 1.6 0.00 0.00 0.00 61 1010.4
20260505114642 18 196 8.0 11.3 0.00 0.00 0.00 62 1010.5
20260505114138 18 152 9.7 11.3 0.00 0.00 0.00 62 1010.5
20260505113635 18 161 6.4 6.4 0.00 0.00 0.00 63 1010.4
20260505113131 18 237 6.4 9.7 0.00 0.00 0.00 63 1010.5
20260505112628 18 198 3.2 4.8 0.00 0.00 0.00 64 1010.6
20260505112126 17 300 1.6 1.6 0.00 0.00 0.00 67 1010.6
20260505111620 17 301 0.0 0.0 0.00 0.00 0.00 69 1010.5
20260505111116 16 194 4.8 6.4 0.00 0.00 0.00 69 1010.4
20260505110612 16 307 1.6 1.6 0.00 0.00 0.00 71 1010.5
20260505110109 16 179 3.2 9.7 0.00 0.00 0.00 71 1010.6
20260505102045 15 230 4.8 4.8 0.00 0.00 0.00 74 1010.6
20260505101543 15 208 4.8 4.8 0.00 0.00 0.00 74 1010.5
20260505101039 15 289 3.2 3.2 0.00 0.00 0.00 75 1010.3
20260505100536 15 180 1.6 3.2 0.00 0.00 0.00 74 1009.9
20260505100033 15 139 4.8 6.4 0.00 0.00 0.00 75 1009.9
20260505095529 15 300 0.0 1.6 0.00 0.00 0.00 74 1009.7
20260505095026 15 225 1.6 3.2 0.00 0.00 0.00 74 1009.4
20260505094522 15 308 1.6 1.6 0.00 0.00 0.00 74 1009.6
20260505094019 15 118 4.8 6.4 0.00 0.00 0.00 73 1009.5
20260505093515 15 255 1.6 3.2 0.00 0.00 0.00 73 1009.2
20260505093013 15 194 1.6 3.2 0.00 0.00 0.00 73 1009.5
20260505092510 15 202 3.2 4.8 0.00 0.00 0.00 74 1009.6
20260505092008 15 300 1.6 3.2 0.00 0.00 0.00 74 1009.5
20260505091505 15 297 0.0 1.6 0.00 0.00 0.00 74 1009.6
20260505091003 15 212 3.2 4.8 0.00 0.00 0.00 74 1009.4
20260505090501 15 199 3.2 6.4 0.00 0.00 0.00 74 1009.5
20260505085958 15 284 1.6 3.2 0.00 0.00 0.00 74 1009.5
20260505085456 15 305 0.0 0.0 0.00 0.00 0.00 74 1009.7
20260505084954 15 259 3.2 4.8 0.00 0.00 0.00 73 1009.6
20260505084452 15 294 1.6 1.6 0.00 0.00 0.00 73 1009.7
20260505083949 15 301 1.6 1.6 0.00 0.00 0.00 73 1009.5
20260505083446 15 304 3.2 4.8 0.00 0.00 0.00 72 1009.7
20260505082943 15 306 0.0 0.0 0.00 0.00 0.00 72 1009.6
20260505082438 15 297 4.8 6.4 0.00 0.00 0.00 72 1009.6
20260505081936 15 187 4.8 6.4 0.00 0.00 0.00 72 1009.4
20260505081432 15 241 3.2 3.2 0.00 0.00 0.00 71 1009.6
20260505080929 15 314 1.6 3.2 0.00 0.00 0.00 72 1009.3
20260505080425 15 208 3.2 4.8 0.00 0.00 0.00 72 1009.7
20260505075920 15 297 1.6 1.6 0.00 0.00 0.00 72 1009.7
20260505075418 15 189 3.2 6.4 0.00 0.00 0.00 72 1009.7
20260505074915 15 255 1.6 1.6 0.00 0.00 0.00 72 1009.7
20260505074412 15 283 3.2 4.8 0.00 0.00 0.00 73 1009.5
20260505073909 15 247 4.8 6.4 0.00 0.00 0.00 73 1009.6
20260505073407 15 212 0.0 0.0 0.00 0.00 0.00 74 1009.5
20260505072904 15 166 6.4 9.7 0.00 0.00 0.00 74 1009.7
20260505072400 14 302 1.6 3.2 0.00 0.00 0.00 75 1009.6
20260505071856 13 323 1.6 1.6 0.00 0.00 0.00 77 1009.4
20260505071352 13 298 0.0 0.0 0.00 0.00 0.00 77 1009.3
20260505070851 13 308 0.0 0.0 0.00 0.00 0.00 78 1009.5
20260505070347 13 26 1.6 3.2 0.00 0.00 0.00 78 1009.4
20260505065842 13 318 0.0 1.6 0.00 0.00 0.00 77 1009.4
20260505065339 13 305 0.0 0.0 0.00 0.00 0.00 78 1009.3
20260505064836 13 308 0.0 0.0 0.00 0.00 0.00 78 1009.6
20260505064333 13 312 0.0 0.0 0.00 0.00 0.00 77 1009.3
20260505063832 13 306 0.0 0.0 0.00 0.00 0.00 77 1009.5
20260505063327 13 303 0.0 0.0 0.00 0.00 0.00 76 1009.4
20260505062824 13 305 0.0 0.0 0.00 0.00 0.00 75 1009.5
20260505062322 13 309 0.0 0.0 0.00 0.00 0.00 75 1009.7
20260505061818 14 301 0.0 0.0 0.00 0.00 0.00 75 1009.5
20260505061316 14 316 1.6 1.6 0.00 0.00 0.00 75 1009.6
20260505060814 14 307 0.0 0.0 0.00 0.00 0.00 74 1009.6
20260505060310 14 342 0.0 1.6 0.00 0.00 0.00 74 1009.6
20260505055806 14 310 1.6 1.6 0.00 0.00 0.00 74 1009.8
20260505055303 14 318 0.0 1.6 0.00 0.00 0.00 73 1009.7
20260505054800 14 314 0.0 0.0 0.00 0.00 0.00 73 1009.7
20260505054257 15 324 1.6 1.6 0.00 0.00 0.00 72 1009.8
20260505053755 15 353 1.6 3.2 0.00 0.00 0.00 71 1009.6
20260505053252 15 312 0.0 0.0 0.00 0.00 0.00 71 1009.7
20260505052749 15 307 0.0 0.0 0.00 0.00 0.00 71 1009.7
20260505052246 15 315 0.0 1.6 0.00 0.00 0.00 70 1009.8
20260505051743 15 19 3.2 3.2 0.00 0.00 0.00 70 1009.8
20260505051241 15 283 1.6 1.6 0.00 0.00 0.00 69 1009.9
20260505050738 15 280 3.2 3.2 0.00 0.00 0.00 69 1009.7
20260505050237 15 321 1.6 1.6 0.00 0.00 0.00 68 1009.9
20260505041706 16 301 1.6 3.2 0.00 0.00 0.00 64 1009.9
20260505041204 16 73 3.2 4.8 0.00 0.00 0.00 65 1010.0
20260505040701 16 307 0.0 0.0 0.00 0.00 0.00 65 1010.1
20260505040158 16 319 1.6 3.2 0.00 0.00 0.00 64 1010.2
20260505035654 16 333 1.6 3.2 0.00 0.00 0.00 64 1010.2
20260505035150 16 316 0.0 1.6 0.00 0.00 0.00 65 1010.0
20260505034647 16 290 1.6 1.6 0.00 0.00 0.00 65 1010.0
20260505034144 16 216 6.4 12.9 0.00 0.00 0.00 64 1010.3
20260505033640 16 275 1.6 3.2 0.00 0.00 0.00 64 1010.2
20260505033139 16 124 8.0 12.9 0.00 0.00 0.00 63 1010.3
20260505032637 16 307 3.2 6.4 0.00 0.00 0.00 63 1010.2
20260505032133 16 175 11.3 16.1 0.00 0.00 0.00 62 1010.3
20260505031630 16 322 3.2 3.2 0.00 0.00 0.00 61 1010.2
20260505031126 16 232 3.2 3.2 0.00 0.00 0.00 61 1010.4
20260505030623 16 306 3.2 4.8 0.00 0.00 0.00 61 1010.4
20260505030119 16 141 4.8 11.3 0.00 0.00 0.00 60 1010.4
20260505025614 16 305 9.7 12.9 0.00 0.00 0.00 59 1010.3
20260505025108 16 160 9.7 12.9 0.00 0.00 0.00 58 1010.3
20260505024605 16 172 6.4 11.3 0.00 0.00 0.00 58 1010.4
20260505024103 16 164 8.0 11.3 0.00 0.00 0.00 57 1010.4
20260505023559 17 159 11.3 12.9 0.00 0.00 0.00 57 1010.5
20260505023057 17 39 6.4 11.3 0.00 0.00 0.00 56 1010.3
20260505022554 17 285 8.0 11.3 0.00 0.00 0.00 56 1010.7
20260505022051 17 216 6.4 12.9 0.00 0.00 0.00 55 1010.5
20260505021548 17 80 11.3 12.9 0.00 0.00 0.00 55 1010.6
20260505021045 17 174 8.0 14.5 0.00 0.00 0.00 55 1010.7
20260505020544 17 280 6.4 6.4 0.00 0.00 0.00 55 1010.4
20260505020042 17 4 8.0 16.1 0.00 0.00 0.00 54 1010.5
20260505015538 17 320 11.3 17.7 0.00 0.00 0.00 54 1010.5
20260505015035 17 209 3.2 3.2 0.00 0.00 0.00 54 1010.5
20260505014532 17 314 3.2 4.8 0.00 0.00 0.00 53 1010.3
20260505014030 17 106 14.5 17.7 0.00 0.00 0.00 53 1010.4
20260505013527 17 142 8.0 11.3 0.00 0.00 0.00 53 1010.4
20260505013024 17 162 6.4 11.3 0.00 0.00 0.00 53 1010.1
20260505012522 17 256 6.4 14.5 0.00 0.00 0.00 53 1010.2
20260505012019 17 148 11.3 14.5 0.00 0.00 0.00 53 1010.2
20260505011514 18 258 3.2 4.8 0.00 0.00 0.00 53 1010.2
20260505011012 18 237 8.0 14.5 0.00 0.00 0.00 53 1010.1
20260505010507 18 334 1.6 3.2 0.00 0.00 0.00 53 1010.0
20260505010004 18 216 8.0 11.3 0.00 0.00 0.00 53 1009.9
20260505005500 18 128 11.3 14.5 0.00 0.00 0.00 53 1009.9
20260505004957 18 176 6.4 20.9 0.00 0.00 0.00 54 1009.8
20260505004454 18 260 9.7 14.5 0.00 0.00 0.00 53 1009.8
20260505003951 18 212 4.8 6.4 0.00 0.00 0.00 54 1009.6
20260505003448 18 110 9.7 12.9 0.00 0.00 0.00 55 1009.7
20260505002944 18 35 9.7 12.9 0.00 0.00 0.00 55 1009.7
20260505002441 18 321 1.6 4.8 0.00 0.00 0.00 56 1009.3
20260505001939 18 34 3.2 4.8 0.00 0.00 0.00 57 1009.2
20260505001436 18 260 1.6 1.6 0.00 0.00 0.00 57 1009.5
20260505000933 17 318 1.6 3.2 0.00 0.00 0.00 58 1009.2
20260505000431 17 225 3.2 3.2 0.00 0.00 0.00 58 1009.4
20260504235928 17 216 6.4 6.4 0.00 0.00 0.00 59 1009.1
20260504235425 17 341 1.6 1.6 0.00 0.00 0.00 60 1009.0
20260504234921 17 313 1.6 3.2 0.00 0.00 0.00 61 1009.0
20260504234419 17 348 1.6 3.2 0.00 0.00 0.00 61 1009.1
20260504233915 17 314 1.6 3.2 0.00 0.00 0.00 61 1008.9
20260504233410 17 280 1.6 1.6 0.00 0.00 0.00 62 1008.9
20260504232907 17 325 1.6 3.2 0.00 0.00 0.00 61 1008.7
20260504232404 17 321 3.2 3.2 0.00 0.00 0.00 62 1008.7
20260504231901 17 310 1.6 1.6 0.00 0.00 0.00 61 1008.7
20260504231358 17 40 4.8 6.4 0.00 0.00 0.00 61 1008.6
20260504230854 17 353 1.6 1.6 0.00 0.00 0.00 60 1008.6
20260504230352 17 4 3.2 4.8 0.00 0.00 0.00 60 1008.4
20260504225850 17 39 8.0 11.3 0.00 0.00 0.00 60 1008.3
20260504225346 17 84 3.2 4.8 0.00 0.00 0.00 60 1008.8
20260504224844 17 112 11.3 16.1 0.00 0.00 0.00 60 1008.5
20260504224341 18 39 6.4 9.7 0.00 0.00 0.00 59 1008.5
20260504223837 18 47 6.4 6.4 0.00 0.00 0.00 58 1008.7
20260504223333 18 40 4.8 9.7 0.00 0.00 0.00 58 1008.4
20260504222829 18 36 4.8 6.4 0.00 0.00 0.00 57 1008.3
20260504222327 18 53 6.4 9.7 0.00 0.00 0.00 57 1008.3
20260504221825 18 11 3.2 4.8 0.00 0.00 0.00 57 1008.6
20260504221321 18 310 3.2 3.2 0.00 0.00 0.00 58 1008.6
20260504220819 18 340 3.2 3.2 0.00 0.00 0.00 56 1008.5
20260504220315 18 71 4.8 4.8 0.00 0.00 0.00 57 1008.7
20260504215813 18 20 4.8 6.4 0.00 0.00 0.00 56 1008.8
20260504215309 18 66 6.4 6.4 0.00 0.00 0.00 56 1008.8
20260504214805 18 120 3.2 4.8 0.00 0.00 0.00 55 1008.7
20260504214302 19 69 6.4 9.7 0.00 0.00 0.00 55 1008.8
20260504213758 18 304 3.2 4.8 0.00 0.00 0.00 54 1008.7
20260504213254 19 3 4.8 4.8 0.00 0.00 0.00 53 1008.9
20260504212752 19 298 1.6 1.6 0.00 0.00 0.00 54 1009.0
20260504212248 18 16 6.4 6.4 0.00 0.00 0.00 54 1009.0
20260504211745 20 354 3.2 4.8 0.00 0.00 0.00 52 1008.8
20260504211241 20 51 1.6 1.6 0.00 0.00 0.00 51 1009.2
20260504210739 20 277 6.4 9.7 0.00 0.00 0.00 50 1008.8
20260504210236 20 275 3.2 3.2 0.00 0.00 0.00 49 1009.0
20260504205733 21 323 3.2 4.8 0.00 0.00 0.00 47 1008.7
20260504205231 21 343 3.2 4.8 0.00 0.00 0.00 48 1008.9
20260504204729 21 51 3.2 4.8 0.00 0.00 0.00 47 1008.7
20260504204227 21 51 9.7 12.9 0.00 0.00 0.00 48 1008.8
20260504203726 21 77 6.4 11.3 0.00 0.00 0.00 47 1008.7
20260504203223 21 267 1.6 3.2 0.00 0.00 0.00 44 1008.8
20260504202724 21 82 4.8 11.3 0.00 0.00 0.00 43 1008.8
20260504202221 22 153 8.0 16.1 0.00 0.00 0.00 39 1008.6
20260504201718 22 178 6.4 9.7 0.00 0.00 0.00 39 1008.8
20260504201215 22 287 4.8 6.4 0.00 0.00 0.00 35 1008.8
20260504200713 22 148 9.7 12.9 0.00 0.00 0.00 35 1008.8
20260504200209 22 111 8.0 12.9 0.00 0.00 0.00 36 1008.8
20260504195705 21 150 8.0 12.9 0.00 0.00 0.00 36 1009.0
20260504195201 22 215 9.7 12.9 0.00 0.00 0.00 35 1009.1
20260504194658 21 92 3.2 4.8 0.00 0.00 0.00 36 1009.0
20260504194154 21 112 4.8 9.7 0.00 0.00 0.00 36 1008.9
20260504193651 22 175 9.7 12.9 0.00 0.00 0.00 35 1009.1
20260504193149 22 171 16.1 17.7 0.00 0.00 0.00 36 1009.2
20260504192647 22 167 9.7 12.9 0.00 0.00 0.00 35 1009.1
20260504192144 21 211 9.7 17.7 0.00 0.00 0.00 36 1009.1
20260504191643 22 136 3.2 6.4 0.00 0.00 0.00 36 1009.4
20260504191138 22 189 6.4 9.7 0.00 0.00 0.00 35 1009.4
20260504190635 22 190 6.4 6.4 0.00 0.00 0.00 34 1009.4
20260504190131 21 151 9.7 12.9 0.00 0.00 0.00 35 1009.4
20260504185628 22 166 8.0 14.5 0.00 0.00 0.00 34 1009.6
20260504185125 22 186 9.7 12.9 0.00 0.00 0.00 35 1009.7
20260504184620 22 144 1.6 1.6 0.00 0.00 0.00 35 1009.8
20260504184115 22 217 8.0 12.9 0.00 0.00 0.00 34 1009.9
20260504183613 21 219 3.2 4.8 0.00 0.00 0.00 34 1009.8
20260504183111 21 190 8.0 12.9 0.00 0.00 0.00 34 1010.0
20260504182608 21 213 4.8 6.4 0.00 0.00 0.00 35 1010.0
20260504182105 21 178 11.3 16.1 0.00 0.00 0.00 35 1010.2
20260504181603 21 315 4.8 6.4 0.00 0.00 0.00 36 1009.9
20260504181100 21 244 3.2 4.8 0.00 0.00 0.00 35 1010.3
20260504180559 21 305 3.2 3.2 0.00 0.00 0.00 35 1010.1
20260504180058 21 203 6.4 6.4 0.00 0.00 0.00 36 1010.3
20260504175554 21 146 9.7 12.9 0.00 0.00 0.00 37 1010.7
20260504175051 20 177 4.8 6.4 0.00 0.00 0.00 38 1010.4
20260504174549 20 185 3.2 4.8 0.00 0.00 0.00 39 1010.5
20260504174045 20 152 9.7 16.1 0.00 0.00 0.00 38 1010.6
20260504173542 20 187 12.9 17.7 0.00 0.00 0.00 38 1010.8
20260504173040 20 326 8.0 17.7 0.00 0.00 0.00 38 1010.6
20260504172536 20 191 4.8 11.3 0.00 0.00 0.00 36 1010.5
20260504172033 20 178 8.0 12.9 0.00 0.00 0.00 36 1010.6